Regional Weather Roundup
Issued by NWS Raleigh/Durham, NC

Home | Current Version | Previous Version | Text Only | Print | Product List | Glossary On
Versions: 1 2 3 4 5 6 7 8 9 10 11 12 13 14 15 16 17 18 19 20 21 22 23 24 25 26 27 28
000
ASUS42 KRAH 252310
RWRRAH
NORTH CAROLINA WEATHER ROUNDUP
NATIONAL WEATHER SERVICE RALEIGH NC
700 PM EDT SUN SEP 25 2016

NOTE: "FAIR" INDICATES FEW OR NO CLOUDS BELOW 12,000 FEET WITH NO
SIGNIFICANT WEATHER AND/OR OBSTRUCTIONS TO VISIBILITY.

NCZ001-053-055-056-065-067-260000-
WESTERN NORTH CAROLINA

CITY           SKY/WX    TMP DP  RH WIND       PRES   REMARKS
ASHEVILLE      MOCLDY    77  64  64 E3        30.13R
JEFFERSON      MOCLDY    65  63  92 CALM      30.19R FOG
HICKORY        CLEAR     79  67  66 NE5       30.09R
RUTHERFORDTON  CLOUDY    84  66  54 NE3       30.07S
MOUNT AIRY     CLEAR     73  68  86 E5        30.14S
BOONE          PTCLDY    68  62  82 S3        30.20S
$$

NCZ021-022-025-041-071-084-088-260000-
CENTRAL NORTH CAROLINA

CITY           SKY/WX    TMP DP  RH WIND       PRES   REMARKS
CHARLOTTE      PTCLDY    84  67  56 E8        30.06S
GREENSBORO     CLOUDY    70  69  97 NE7       30.11S FOG
WINSTON-SALEM  CLOUDY    71  66  84 E8        30.12F
RALEIGH-DURHAM CLOUDY    71  66  84 E3        30.12R
FORT BRAGG     PTCLDY    74  68  82 E7        30.09R
FAYETTEVILLE   MOCLDY    75  68  78 NE8       30.09R
BURLINGTON     CLOUDY    70  68  93 E7        30.11S
LAURINBURG     PTCLDY    78  71  79 E9        30.08R
$$

NCZ011-015-027-028-043-044-047-080-103-260000-
NORTHEASTERN NORTH CAROLINA

CITY           SKY/WX    TMP DP  RH WIND       PRES   REMARKS
ROCKY MT-WILSO CLOUDY    70  65  84 NE3       30.13R
GREENVILLE     CLOUDY    72  64  78 E3        30.14R HAZE
WASHINGTON     MOCLDY    69  62  78 CALM      30.13S
ELIZABETH CITY CLEAR     69  55  60 NE8       30.14R
MANTEO         PTCLDY    68  56  65 NE6       30.13S
CAPE HATTERAS  PTCLDY    70  57  63 NE6       30.12R
$$

NCZ078-087-090-091-093-098-101-260000-
SOUTHEASTERN NORTH CAROLINA

CITY           SKY/WX    TMP DP  RH WIND       PRES   REMARKS
LUMBERTON      MOCLDY    79  70  74 NE7       30.07R
GOLDSBORO      CLOUDY    72  70  92 E8        30.10R
KINSTON        CLOUDY    72  63  73 NE6       30.12S
KENANSVILLE    CLOUDY    72  66  83 E3        30.11S
NEW BERN       CLOUDY    72  60  66 NE8       30.13R
CHERRY POINT   CLOUDY    73  63  70 E6        30.12R
BEAUFORT       CLOUDY    73  61  65 NE10G18   30.11R
JACKSONVILLE   CLOUDY    74  62  66 E9        30.10R
WILMINGTON     CLOUDY    76  68  76 E9        30.08S
$$





USA.gov is the U.S. government's official web portal to all federal, state and local government web resources and services.